UAL246 KLAX-KEWR

Flight info

Callsign UAL246
Flight time N/A
Altitude 37000
Route ORCKA5 LAS J146 DVC DCT HBU DCT MCK DCT OVR DCT DSM DCT EVOTE DCT NELLS DCT KEEHO J584 SLT FQM3
Aircraft B77W/H-VGDW/C

Departure

Time 2026-04-23 23:25
Airport Los Angeles International Airport (KLAX)

Arrival

Time N/A
Airport Newark Liberty International Airport (KEWR)
Time Latitude Longitude Altitude Speed Heading
2026-04-23 22:44 33.94090 -118.40921 130 ft 0 kts 264°
2026-04-23 23:01 33.94092 -118.40907 130 ft 4 kts 264°
2026-04-23 23:02 33.94095 -118.40875 136 ft 4 kts 263°
2026-04-23 23:02 33.94097 -118.40847 125 ft 1 kts 263°
2026-04-23 23:02 33.94098 -118.40847 125 ft 0 kts 263°
2026-04-23 23:08 33.94097 -118.40849 130 ft 1 kts 262°
2026-04-23 23:09 33.94078 -118.40858 125 ft 6 kts 180°
2026-04-23 23:09 33.93990 -118.40821 128 ft 21 kts 162°
2026-04-23 23:09 33.93879 -118.40863 126 ft 20 kts 240°
2026-04-23 23:09 33.93854 -118.41013 127 ft 18 kts 262°
2026-04-23 23:10 33.93836 -118.41166 127 ft 21 kts 262°
2026-04-23 23:10 33.93818 -118.41342 129 ft 21 kts 264°
2026-04-23 23:10 33.93804 -118.41519 128 ft 21 kts 264°
2026-04-23 23:10 33.93788 -118.41693 130 ft 21 kts 263°
2026-04-23 23:11 33.93770 -118.41870 130 ft 21 kts 263°
2026-04-23 23:11 33.93750 -118.42047 126 ft 21 kts 262°
2026-04-23 23:11 33.93730 -118.42222 129 ft 21 kts 262°
2026-04-23 23:11 33.93713 -118.42399 127 ft 21 kts 263°
2026-04-23 23:12 33.93698 -118.42576 127 ft 21 kts 270°
2026-04-23 23:12 33.93803 -118.42665 128 ft 22 kts 356°
2026-04-23 23:12 33.93930 -118.42677 128 ft 22 kts 355°
2026-04-23 23:13 33.94003 -118.42684 128 ft 22 kts 355°
2026-04-23 23:13 33.94122 -118.42700 128 ft 17 kts 352°
2026-04-23 23:13 33.94239 -118.42719 128 ft 17 kts 354°
2026-04-23 23:13 33.94354 -118.42734 128 ft 17 kts 354°
2026-04-23 23:14 33.94470 -118.42750 126 ft 17 kts 353°
2026-04-23 23:14 33.94484 -118.42752 127 ft 0 kts 353°
2026-04-23 23:15 33.94497 -118.42754 127 ft 4 kts 353°
2026-04-23 23:16 33.94511 -118.42756 128 ft 0 kts 353°
2026-04-23 23:18 33.94514 -118.42757 128 ft 1 kts 352°
2026-04-23 23:19 33.94532 -118.42760 125 ft 4 kts 351°
2026-04-23 23:19 33.94565 -118.42766 127 ft 6 kts 351°
2026-04-23 23:19 33.94608 -118.42754 127 ft 7 kts 38°
2026-04-23 23:19 33.94634 -118.42695 129 ft 9 kts 74°
2026-04-23 23:20 33.94652 -118.42580 130 ft 19 kts 82°
2026-04-23 23:20 33.94670 -118.42388 128 ft 27 kts 84°
2026-04-23 23:20 33.94690 -118.42168 126 ft 25 kts 83°
2026-04-23 23:20 33.94710 -118.41976 130 ft 21 kts 82°
2026-04-23 23:21 33.94729 -118.41798 127 ft 22 kts 83°
2026-04-23 23:21 33.94748 -118.41615 127 ft 22 kts 83°
2026-04-23 23:21 33.94773 -118.41427 126 ft 23 kts 76°
2026-04-23 23:21 33.94800 -118.41235 127 ft 23 kts 82°
2026-04-23 23:22 33.94821 -118.41044 127 ft 23 kts 82°
2026-04-23 23:22 33.94842 -118.40852 130 ft 23 kts 82°
2026-04-23 23:22 33.94861 -118.40661 125 ft 23 kts 84°
2026-04-23 23:22 33.94880 -118.40465 127 ft 24 kts 83°
2026-04-23 23:23 33.94901 -118.40258 127 ft 25 kts 83°
2026-04-23 23:23 33.94920 -118.40070 126 ft 16 kts 83°
2026-04-23 23:23 33.94932 -118.39977 130 ft 0 kts 72°
2026-04-23 23:24 33.94933 -118.39973 126 ft 2 kts 70°
2026-04-23 23:24 33.94960 -118.39935 125 ft 11 kts 32°
2026-04-23 23:24 33.95029 -118.39969 126 ft 13 kts 291°
2026-04-23 23:25 33.95025 -118.40090 130 ft 21 kts 263°
2026-04-23 23:25 33.94977 -118.40520 126 ft 109 kts 261°
2026-04-23 23:25 33.94875 -118.41449 128 ft 189 kts 263°
2026-04-23 23:25 33.94733 -118.43296 781 ft 236 kts 265°
2026-04-23 23:26 33.94671 -118.45191 2487 ft 213 kts 268°
2026-04-23 23:26 33.94653 -118.47009 3327 ft 227 kts 269°
2026-04-23 23:26 33.94655 -118.49032 3703 ft 256 kts 270°
2026-04-23 23:26 33.94619 -118.51235 4451 ft 269 kts 268°
2026-04-23 23:27 33.94526 -118.53535 5301 ft 278 kts 267°
2026-04-23 23:27 33.94381 -118.55865 6404 ft 279 kts 267°
2026-04-23 23:27 33.94165 -118.58179 7661 ft 272 kts 259°
2026-04-23 23:27 33.93339 -118.60106 9398 ft 263 kts 227°
2026-04-23 23:28 33.91750 -118.61230 10723 ft 276 kts 197°
2026-04-23 23:28 33.89778 -118.61276 11773 ft 295 kts 172°
2026-04-23 23:28 33.87792 -118.60415 12883 ft 311 kts 155°
2026-04-23 23:28 33.86031 -118.58806 13975 ft 327 kts 135°
2026-04-23 23:29 33.84805 -118.56479 14799 ft 336 kts 109°
2026-04-23 23:29 33.84519 -118.53675 15428 ft 343 kts 79°
2026-04-23 23:29 33.85319 -118.50999 16070 ft 342 kts 50°
2026-04-23 23:29 33.87004 -118.49062 16776 ft 331 kts 25°
2026-04-23 23:30 33.88983 -118.47616 17431 ft 338 kts 27°
2026-04-23 23:30 33.90918 -118.45927 18181 ft 348 kts 32°
2026-04-23 23:30 33.92777 -118.44022 18808 ft 355 kts 40°
2026-04-23 23:30 33.94357 -118.41687 19015 ft 366 kts 51°
2026-04-23 23:31 33.95754 -118.39141 19003 ft 368 kts 53°
2026-04-23 23:31 33.97148 -118.36556 19010 ft 367 kts 52°
2026-04-23 23:31 33.98556 -118.34010 18992 ft 363 kts 51°
2026-04-23 23:31 33.99973 -118.31494 19092 ft 362 kts 51°
2026-04-23 23:32 34.01402 -118.28977 19756 ft 366 kts 51°
2026-04-23 23:32 34.02849 -118.26431 20496 ft 370 kts 51°
2026-04-23 23:32 34.04304 -118.23868 21291 ft 372 kts 51°
2026-04-23 23:32 34.05774 -118.21275 22040 ft 376 kts 51°
2026-04-23 23:33 34.07259 -118.18651 22737 ft 381 kts 52°
2026-04-23 23:33 34.08762 -118.15994 23439 ft 387 kts 52°
2026-04-23 23:33 34.10288 -118.13293 24044 ft 391 kts 52°
2026-04-23 23:33 34.11831 -118.10563 24633 ft 396 kts 52°
2026-04-23 23:34 34.12860 -118.08738 25028 ft 399 kts 52°
2026-04-23 23:34 34.14430 -118.05956 25611 ft 403 kts 52°
2026-04-23 23:34 34.16026 -118.03128 25981 ft 411 kts 52°
2026-04-23 23:34 34.17646 -118.00254 25949 ft 414 kts 52°
2026-04-23 23:35 34.19782 -117.96460 25955 ft 410 kts 52°
2026-04-23 23:35 34.20862 -117.94533 25954 ft 408 kts 52°
2026-04-23 23:35 34.22443 -117.91702 25938 ft 405 kts 52°
2026-04-23 23:35 34.24020 -117.88892 25966 ft 404 kts 52°
2026-04-23 23:36 34.25577 -117.86120 25979 ft 404 kts 52°
2026-04-23 23:36 34.27154 -117.83306 25971 ft 405 kts 52°
2026-04-23 23:36 34.28732 -117.80487 25975 ft 405 kts 52°
2026-04-23 23:36 34.30315 -117.77655 25968 ft 407 kts 52°
2026-04-23 23:37 34.31899 -117.74817 25977 ft 407 kts 52°
2026-04-23 23:37 34.33490 -117.71970 25971 ft 410 kts 52°
2026-04-23 23:37 34.35095 -117.69107 25961 ft 412 kts 52°
2026-04-23 23:37 34.36731 -117.66264 25949 ft 412 kts 50°
2026-04-23 23:38 34.38405 -117.63459 25955 ft 410 kts 50°
2026-04-23 23:38 34.40088 -117.60671 25953 ft 410 kts 50°
2026-04-23 23:38 34.41770 -117.57888 25944 ft 409 kts 50°
2026-04-23 23:38 34.43444 -117.55108 25944 ft 408 kts 50°
2026-04-23 23:39 34.45110 -117.52328 25967 ft 407 kts 50°
2026-04-23 23:39 34.46770 -117.49549 26008 ft 407 kts 50°
2026-04-23 23:39 34.48428 -117.46767 26016 ft 406 kts 50°
2026-04-23 23:39 34.50078 -117.43993 26020 ft 406 kts 50°
2026-04-23 23:40 34.51729 -117.41214 26023 ft 405 kts 50°
2026-04-23 23:40 34.53359 -117.38468 26023 ft 405 kts 50°
2026-04-23 23:40 34.55006 -117.35691 26025 ft 405 kts 50°
2026-04-23 23:40 34.56654 -117.32910 26028 ft 405 kts 50°
2026-04-23 23:41 34.58296 -117.30138 26029 ft 405 kts 50°
2026-04-23 23:41 34.59941 -117.27357 26024 ft 405 kts 50°
2026-04-23 23:41 34.61584 -117.24579 26018 ft 405 kts 50°
2026-04-23 23:41 34.63229 -117.21795 26011 ft 406 kts 50°
2026-04-23 23:42 34.64845 -117.19058 26001 ft 406 kts 50°
2026-04-23 23:42 34.66491 -117.16268 25944 ft 407 kts 50°
2026-04-23 23:42 34.68147 -117.13459 25943 ft 407 kts 50°
2026-04-23 23:42 34.69799 -117.10654 25943 ft 408 kts 50°
2026-04-23 23:43 34.71450 -117.07849 25952 ft 408 kts 50°
2026-04-23 23:43 34.73099 -117.05044 25950 ft 408 kts 50°
2026-04-23 23:43 34.74750 -117.02234 25951 ft 408 kts 50°
2026-04-23 23:43 34.76403 -116.99418 25959 ft 408 kts 50°
2026-04-23 23:44 34.78052 -116.96607 25964 ft 408 kts 50°
2026-04-23 23:44 34.79703 -116.93790 25966 ft 408 kts 50°
2026-04-23 23:44 34.81351 -116.90976 25960 ft 408 kts 50°
2026-04-23 23:44 34.82997 -116.88164 25982 ft 407 kts 50°
2026-04-23 23:45 34.84637 -116.85359 25973 ft 407 kts 50°
2026-04-23 23:45 34.86279 -116.82548 25968 ft 407 kts 50°
2026-04-23 23:45 34.87900 -116.79773 25968 ft 406 kts 50°
2026-04-23 23:45 34.89539 -116.76965 25971 ft 406 kts 50°
2026-04-23 23:46 34.91177 -116.74157 25969 ft 406 kts 49°
2026-04-23 23:46 34.92915 -116.71461 25965 ft 402 kts 43°
2026-04-23 23:46 34.94797 -116.68958 25972 ft 400 kts 41°
2026-04-23 23:46 34.96701 -116.66478 25968 ft 400 kts 41°
2026-04-23 23:47 34.98604 -116.64008 25965 ft 400 kts 41°
2026-04-23 23:47 35.00511 -116.61525 25961 ft 401 kts 41°
2026-04-23 23:47 35.02434 -116.59015 26175 ft 409 kts 41°
2026-04-23 23:47 35.04369 -116.56479 26658 ft 417 kts 41°
2026-04-23 23:48 35.06352 -116.53872 27193 ft 422 kts 41°
2026-04-23 23:48 35.08353 -116.51232 27795 ft 425 kts 41°
2026-04-23 23:48 35.10368 -116.48567 28376 ft 428 kts 41°
2026-04-23 23:48 35.12400 -116.45877 28928 ft 433 kts 41°
2026-04-23 23:49 35.16523 -116.40414 30002 ft 441 kts 41°
2026-04-23 23:49 35.18614 -116.37640 30475 ft 445 kts 41°
2026-04-23 23:49 35.20719 -116.34846 30945 ft 448 kts 41°
2026-04-23 23:50 35.22840 -116.32027 31407 ft 452 kts 41°
2026-04-23 23:50 35.24978 -116.29185 31836 ft 455 kts 41°
2026-04-23 23:50 35.27131 -116.26320 32253 ft 459 kts 42°
2026-04-23 23:50 35.27961 -116.25215 32422 ft 461 kts 41°
2026-04-23 23:51 35.30145 -116.22306 32838 ft 465 kts 41°
2026-04-23 23:51 35.32347 -116.19369 33226 ft 469 kts 41°
2026-04-23 23:51 35.34562 -116.16412 33621 ft 472 kts 41°
2026-04-23 23:51 35.36789 -116.13437 34004 ft 475 kts 42°
2026-04-23 23:52 35.39025 -116.10448 34330 ft 478 kts 42°
2026-04-23 23:52 35.41277 -116.07433 34657 ft 481 kts 42°
2026-04-23 23:52 35.43542 -116.04401 34919 ft 485 kts 42°
2026-04-23 23:52 35.45843 -116.01318 34971 ft 491 kts 42°
2026-04-23 23:53 35.50426 -115.95157 34980 ft 485 kts 42°
2026-04-23 23:53 35.54919 -115.89109 34991 ft 481 kts 42°
2026-04-23 23:54 35.59425 -115.83044 35002 ft 481 kts 42°
2026-04-23 23:54 35.63936 -115.76954 35001 ft 482 kts 42°
2026-04-23 23:55 35.68436 -115.70796 35008 ft 484 kts 43°
2026-04-23 23:55 35.72931 -115.64601 34998 ft 486 kts 43°
2026-04-23 23:56 35.77439 -115.58386 35012 ft 487 kts 43°
2026-04-23 23:56 35.81962 -115.52146 35022 ft 488 kts 43°
2026-04-23 23:57 35.86481 -115.45903 35017 ft 489 kts 42°
2026-04-23 23:57 35.90978 -115.39675 35017 ft 489 kts 42°
2026-04-23 23:58 35.95491 -115.33414 35021 ft 487 kts 42°
2026-04-23 23:58 35.99990 -115.27163 34993 ft 486 kts 42°
2026-04-23 23:59 36.04470 -115.20920 34966 ft 485 kts 43°
2026-04-23 23:59 36.08343 -115.14011 34986 ft 493 kts 57°
2026-04-24 00:00 36.11128 -115.06195 34988 ft 498 kts 67°
2026-04-24 00:00 36.13501 -114.98126 34912 ft 500 kts 67°
2026-04-24 00:01 36.15330 -114.92007 34912 ft 501 kts 66°
2026-04-24 00:01 36.17790 -114.83949 34906 ft 503 kts 66°
2026-04-24 00:02 36.20245 -114.75938 34891 ft 504 kts 66°
2026-04-24 00:02 36.22759 -114.67738 34872 ft 505 kts 66°
2026-04-24 00:03 36.25237 -114.59647 34868 ft 505 kts 66°
2026-04-24 00:03 36.27705 -114.51545 34891 ft 504 kts 66°
2026-04-24 00:04 36.30166 -114.43447 34888 ft 503 kts 66°
2026-04-24 00:04 36.32591 -114.35502 34895 ft 500 kts 66°